Flag for U.S.A. Weather past 2 weeks in Juneau, Alaska, U.S.A.

41 °F

Light rain. Overcast.

Feels Like: 35 °F
Forecast: 39 / 42 °F
Wind: 10 mph from East

Location: Juneau International Airport

Current Time: Nov 30, 2015 at 10:57:28 AM

Latest Report: Nov 30, 2015 at 9:53 AM

Visibility: 10 mi

Pressure: 29.64 "Hg

Humidity: 93%

Dew point: 39 °F

Location of JuneauLocation

Historic Weather in Juneau — Graph


Juneau temperature yesterday

Maximum temperature yesterday: 45 °F (at 5:53 PM)
Minimum temperature yesterday: 40 °F (at 5:53 AM)
Average temperature yesterday: 42 °F

Past Weeks' High & Low Weather Summary

High48 °F (Nov 21, 8:53 AM)100% (Nov 23, 8:53 AM)30.53 "Hg (Nov 23, 8:53 AM)
Low20 °F (Nov 23, 7:53 PM)53% (Nov 29, 5:53 PM)29.10 "Hg (Nov 16, 2:53 PM)
Average34 °F87%30.01 "Hg
* Reported Nov 15 8:00 AM — Nov 30 8:53 AM, Juneau, Weather by CustomWeather, © 2015

Note: Actual official high and low records may vary slightly from our data, if they occured in-between our weather recording intervals... More about our weather records


Juneau weather history for previous 24 hours

Time TempWeatherWind HumidityBarometerVisibility
8:53 AM
Mon, Nov 30
42 °FLight rain. Cloudy.12 mph89%29.65 "Hg10 mi
7:53 AM41 °FLight rain. Mostly cloudy.9 mph89%29.67 "Hg10 mi
6:53 AM40 °FLight rain. Mostly cloudy.9 mph93%29.68 "Hg9 mi
5:53 AM41 °FLight rain. Mostly cloudy.10 mph89%29.70 "Hg8 mi
4:53 AM41 °FLight rain. Mostly cloudy.9 mph89%29.71 "Hg10 mi
3:53 AM41 °FLight rain. Mostly cloudy.8 mph89%29.72 "Hg10 mi
2:53 AM41 °FLight rain. Overcast.10 mph89%29.73 "Hg10 mi
1:53 AM41 °FLight rain. Overcast.10 mph86%29.73 "Hg10 mi
12:53 AM41 °FLight rain. Overcast.17 mph86%29.72 "Hg10 mi
11:53 PM
Sun, Nov 29
41 °FLight rain. Overcast.18 mph86%29.70 "Hg10 mi
10:53 PM41 °FLight rain. Fog.22 mph86%29.69 "Hg6 mi
9:53 PM41 °FLight rain. Overcast.20 mph82%29.67 "Hg6 mi
8:53 PM42 °FLight rain. Overcast.23 mph73%29.63 "Hg7 mi
7:53 PM45 °FLight rain. Mostly cloudy.24 mph53%29.64 "Hg10 mi
6:53 PM45 °FMostly cloudy.21 mph53%29.66 "Hg10 mi
5:53 PM45 °FMostly cloudy.21 mph53%29.69 "Hg10 mi
4:53 PM43 °FOvercast.20 mph62%29.72 "Hg10 mi
3:53 PM44 °FMostly cloudy.20 mph58%29.74 "Hg10 mi
2:53 PM44 °FMostly cloudy.21 mph63%29.75 "Hg10 mi
1:53 PM44 °FMostly cloudy.22 mph63%29.78 "Hg10 mi
12:53 PM44 °FCloudy.22 mph65%29.78 "Hg10 mi
11:53 AM44 °FMostly cloudy.18 mph68%29.80 "Hg10 mi
10:53 AM42 °FLight rain. Mostly cloudy.17 mph76%29.81 "Hg10 mi
Weather by CustomWeather, © 2015

See weather overviewHow to use our weather pages